Regional Weather Roundup
Issued by NWS Goodland, KS

Home | Current Version | Previous Version | Graphics & Text | Print | Product List | Glossary On
Versions: 1 2 3 4 5 6 7 8 9 10 11 12 13 14 15 16 17 18 19 20 21 22 23 24 25 26 27 28 29 30 31 32 33 34 35 36 37 38 39 40 41 42 43 44 45 46 47 48 49 50
000
ASUS43 KGLD 290759
RWRGLD

GOODLAND FORECAST AREA HOURLY WEATHER ROUNDUP
NATIONAL WEATHER SERVICE GOODLAND KS
100 AM MST SAT NOV 29 2014

...OFFICIAL OBSERVATIONS...

CITY           SKY/WX    TMP DP  RH WIND       PRES   REMARKS
GOODLAND KS    CLOUDY    46  17  31 W15       29.67F
HILL CITY KS   MOCLDY    33  19  56 SW3       29.63F
IMPERIAL NEB   CLOUDY    40  20  44 NW10      29.66F
MCCOOK NEB     CLOUDY    34  15  46 N7        29.62F
AKRON CO       CLOUDY    43  21  41 W12       29.71F
BURLINGTON CO  MOCLDY    43  14  31 W10       29.71S
LIMON CO       MOCLDY    32  13  45 NW8       29.79F
$$

...UNOFFICIAL OBSERVATIONS...

CITY           SKY/WX    TMP DP  RH WIND       PRES   REMARKS
COLBY KS       CLEAR     37  25  60 SW9       29.65F
NORTON KS      CLEAR     36  16  44 SW9       29.61F
SHARON SPRINGS   N/A     45  17  32 W10         N/A
TRIBUNE KS     MOCLDY    43  23  45 SW15      29.70F
TRENTON NEB      N/A     40  32  73 N13         N/A
$$


USA.gov is the U.S. government's official web portal to all federal, state and local government web resources and services.